DMSP 5D-2 F13 DEB, 40678

Orbit data source: Space-Track

DMSP 5D-2 F13 DEB, 40678 is space debris in SSO originally from a launch on Fri, 24 Mar 1995 UTC launched from the Air Force Western Test Range (AFWTR). Debris objects in space refer to the collection of defunct objects orbiting the Earth. Examples of debris include non-operational satellites, rocket bodies, and fragments generated from explosions, collisions, or faulty payload assembly.

Loading next visibility...
Identifier
40678, 1995-015FS
Orbit
SSO
Country
Flag of USUS
Related business
Manufacturer
Unknown
Mission
Spacecraft
Bus & Motor
Unknown
Mass
Unknown
Launch date (UTC)
1995-03-24 (31 years ago)
Launch vehicle
Unknown
Launch site
Air Force Western Test Range (AFWTR)
Object type
Payload
Rocket body
Debris
Shape & HBR
Unknown shape, 0.1 m
Radar Cross Section
Small (<0.1 m²)

Expand to show TLE details & history
Last TLE update: 1 day ago

TLE from 1 day ago
0 DMSP 5D-2 F13 DEB
1 40678U 95015FS  26094.60269523  .00013427  00000-0  31024-2 0  9998
2 40678  98.5857 146.9876 0013262  40.1825 320.0350 14.55260479568997
Epoch: 2026-04-04T14:27Z
TLE epoch observation values (Epoch: 2026-04-04T14:27:52.867Z)
Latitude
0.00001°
Longitude
97.09721°
Altitude
704.286 km
Speed
7.508 km/s
True Right ascension
09h 47m 57s
True Declination
0° 00' 00"
Sunlit
Object was in full shadow at epoch
Visualization orbit readout
Latitude
Unknown
Longitude
Unknown
Altitude
Unknown
Speed
Unknown
Apparent Right ascension
Unknown
Apparent Declination
Unknown
Sunlit
N/A
Visualization observer readout
Local Sidereal Time
23:15:50
Azimuth
Unknown
Elevation
Unknown
Doppler factor
Unknown
Orbital elements
Apogee altitude
715.019 km
Perigee altitude
696.23 km
Semi-major axis
7,083.762 km
Eccentricity
0.00133
Inclination
98.5857°
RAAN
146.9876°
Arg. of periapsis
40.1825°
True anomaly
319.93726°
Mean anomaly
320.035°
Eccentric anomaly
319.98614°
Mean motion
3.64038 °/min
Orbital period
98.89 mins
BSTAR
0.0031024
Loading maneuver chart data...
Computing Atmospheric mass density...

Documentation

Showing up to 5 results
|